| time (UTC) | temp C | wind direction | speed KPH | gust KPH | rain 1hr cm | rain 24hr cm | rain mn cm | humidity % | barometer mb |
| 20260510044010 | 18 | 0 | 0.0 | 3.2 | 0.00 | 0.00 | 0.00 | 62 | 1029.9 |
| 20260510043511 | 18 | 0 | 0.0 | 3.2 | 0.00 | 0.00 | 0.00 | 61 | 1029.9 |
| 20260510043028 | 18 | 0 | 0.0 | 3.2 | 0.00 | 0.00 | 0.00 | 61 | 1030.0 |
| 20260510042511 | 18 | 0 | 0.0 | 4.8 | 0.00 | 0.00 | 0.00 | 62 | 1029.9 |
| 20260510042010 | 18 | 218 | 0.0 | 4.8 | 0.00 | 0.00 | 0.00 | 61 | 1029.9 |
| 20260510041535 | 18 | 218 | 1.6 | 4.8 | 0.00 | 0.00 | 0.00 | 62 | 1029.9 |
| 20260510041015 | 18 | 0 | 1.6 | 4.8 | 0.00 | 0.00 | 0.00 | 62 | 1030.0 |
| 20260510040511 | 18 | 0 | 0.0 | 4.8 | 0.00 | 0.00 | 0.00 | 63 | 1029.9 |
| 20260510040028 | 18 | 0 | 0.0 | 4.8 | 0.00 | 0.00 | 0.00 | 63 | 1029.9 |
| 20260510035511 | 18 | 0 | 0.0 | 3.2 | 0.00 | 0.00 | 0.00 | 64 | 1030.0 |
| 20260510035009 | 18 | 218 | 0.0 | 8.0 | 0.00 | 0.00 | 0.00 | 64 | 1030.0 |
| 20260510034529 | 17 | 0 | 1.6 | 8.0 | 0.00 | 0.00 | 0.00 | 64 | 1030.2 |
| 20260510034009 | 17 | 217 | 1.6 | 6.4 | 0.00 | 0.00 | 0.00 | 65 | 1030.2 |
| 20260510033512 | 17 | 0 | 0.0 | 3.2 | 0.00 | 0.00 | 0.00 | 65 | 1030.3 |
| 20260510033030 | 17 | 0 | 0.0 | 3.2 | 0.00 | 0.00 | 0.00 | 65 | 1030.4 |
| 20260510032512 | 17 | 0 | 0.0 | 4.8 | 0.00 | 0.00 | 0.00 | 66 | 1030.4 |
| 20260510032011 | 17 | 0 | 0.0 | 4.8 | 0.00 | 0.00 | 0.00 | 66 | 1030.4 |
| 20260510031530 | 17 | 213 | 0.0 | 4.8 | 0.00 | 0.00 | 0.00 | 66 | 1030.5 |
| 20260510031010 | 17 | 0 | 0.0 | 3.2 | 0.00 | 0.00 | 0.00 | 68 | 1030.4 |
| 20260510030511 | 17 | 0 | 0.0 | 3.2 | 0.00 | 0.00 | 0.00 | 68 | 1030.6 |
| 20260510030034 | 17 | 213 | 0.0 | 3.2 | 0.00 | 0.00 | 0.00 | 68 | 1030.6 |
| 20260510025508 | 17 | 0 | 0.0 | 0.0 | 0.00 | 0.00 | 0.00 | 68 | 1030.6 |
| 20260510025011 | 17 | 0 | 0.0 | 6.4 | 0.00 | 0.00 | 0.00 | 69 | 1030.8 |
| 20260510024534 | 17 | 0 | 0.0 | 6.4 | 0.00 | 0.00 | 0.00 | 70 | 1030.9 |
| 20260510024008 | 17 | 213 | 1.6 | 6.4 | 0.00 | 0.00 | 0.00 | 70 | 1030.9 |
| 20260510023511 | 17 | 0 | 0.0 | 1.6 | 0.00 | 0.00 | 0.00 | 71 | 1031.0 |
| 20260510023028 | 17 | 0 | 0.0 | 4.8 | 0.00 | 0.00 | 0.00 | 72 | 1031.1 |
| 20260510022511 | 17 | 0 | 0.0 | 6.4 | 0.00 | 0.00 | 0.00 | 72 | 1031.1 |
| 20260510022015 | 16 | 215 | 0.0 | 6.4 | 0.00 | 0.00 | 0.00 | 74 | 1031.1 |
| 20260510021534 | 16 | 0 | 0.0 | 4.8 | 0.00 | 0.00 | 0.00 | 76 | 1031.3 |
| 20260510021010 | 16 | 0 | 0.0 | 6.4 | 0.00 | 0.00 | 0.00 | 77 | 1031.3 |
| 20260510020511 | 16 | 0 | 0.0 | 6.4 | 0.00 | 0.00 | 0.00 | 78 | 1031.4 |
| 20260510020029 | 16 | 0 | 0.0 | 3.2 | 0.00 | 0.00 | 0.00 | 79 | 1031.5 |
| 20260510015517 | 15 | 0 | 0.0 | 4.8 | 0.00 | 0.00 | 0.00 | 81 | 1031.5 |
| 20260510015010 | 15 | 214 | 0.0 | 4.8 | 0.00 | 0.00 | 0.00 | 82 | 1031.5 |
| 20260510014530 | 15 | 214 | 0.0 | 4.8 | 0.00 | 0.00 | 0.00 | 84 | 1031.6 |
| 20260510014010 | 15 | 0 | 0.0 | 3.2 | 0.00 | 0.00 | 0.00 | 85 | 1031.8 |
| 20260510013510 | 15 | 0 | 0.0 | 3.2 | 0.00 | 0.00 | 0.00 | 86 | 1031.7 |
| 20260510013027 | 15 | 0 | 0.0 | 3.2 | 0.00 | 0.00 | 0.00 | 86 | 1031.7 |
| 20260510012534 | 15 | 0 | 0.0 | 3.2 | 0.00 | 0.00 | 0.00 | 87 | 1031.7 |
| 20260510012011 | 14 | 0 | 0.0 | 3.2 | 0.00 | 0.00 | 0.00 | 88 | 1031.7 |
| 20260510011530 | 14 | 214 | 0.0 | 3.2 | 0.00 | 0.00 | 0.00 | 88 | 1031.8 |
| 20260510011009 | 14 | 0 | 0.0 | 3.2 | 0.00 | 0.00 | 0.00 | 88 | 1031.7 |
| 20260510010509 | 14 | 0 | 0.0 | 3.2 | 0.00 | 0.00 | 0.00 | 89 | 1031.9 |
| 20260510010029 | 13 | 0 | 0.0 | 3.2 | 0.00 | 0.00 | 0.00 | 89 | 1031.9 |
| 20260510005511 | 13 | 0 | 0.0 | 3.2 | 0.00 | 0.00 | 0.00 | 89 | 1031.9 |
| 20260510005013 | 13 | 0 | 0.0 | 4.8 | 0.00 | 0.00 | 0.00 | 90 | 1032.0 |
| 20260510004528 | 13 | 0 | 0.0 | 4.8 | 0.00 | 0.00 | 0.00 | 90 | 1032.0 |
| 20260510004011 | 13 | 0 | 0.0 | 4.8 | 0.00 | 0.00 | 0.00 | 90 | 1031.8 |
| 20260510003510 | 13 | 214 | 1.6 | 9.7 | 0.00 | 0.00 | 0.00 | 89 | 1031.9 |
| 20260510003031 | 13 | 214 | 3.2 | 9.7 | 0.00 | 0.00 | 0.00 | 90 | 1031.8 |
| 20260510002511 | 13 | 225 | 3.2 | 9.7 | 0.00 | 0.00 | 0.00 | 90 | 1031.8 |
| 20260510002014 | 13 | 240 | 1.6 | 9.7 | 0.00 | 0.00 | 0.00 | 90 | 1031.9 |
| 20260510001528 | 13 | 257 | 1.6 | 6.4 | 0.00 | 0.00 | 0.00 | 90 | 1031.8 |
| 20260510001012 | 13 | 0 | 0.0 | 0.0 | 0.00 | 0.00 | 0.00 | 90 | 1031.9 |
| 20260510000510 | 12 | 0 | 0.0 | 0.0 | 0.00 | 0.00 | 0.00 | 90 | 1031.9 |
| 20260510000028 | 12 | 0 | 0.0 | 0.0 | 0.00 | 0.00 | 0.00 | 90 | 1031.8 |
| 20260509235510 | 12 | 0 | 0.0 | 0.0 | 0.00 | 0.00 | 0.00 | 90 | 1031.9 |
| 20260509235013 | 12 | 0 | 0.0 | 0.0 | 0.00 | 0.00 | 0.00 | 90 | 1031.8 |
| 20260509234536 | 12 | 0 | 0.0 | 0.0 | 0.00 | 0.00 | 0.00 | 90 | 1032.0 |
| 20260509234010 | 12 | 0 | 0.0 | 0.0 | 0.00 | 0.00 | 0.00 | 90 | 1032.0 |
| 20260509233510 | 12 | 0 | 0.0 | 0.0 | 0.00 | 0.00 | 0.00 | 90 | 1031.9 |
| 20260509233026 | 12 | 0 | 0.0 | 0.0 | 0.00 | 0.00 | 0.00 | 90 | 1031.9 |
| 20260509232508 | 12 | 0 | 0.0 | 0.0 | 0.00 | 0.00 | 0.00 | 90 | 1032.0 |
| 20260509232011 | 12 | 0 | 0.0 | 0.0 | 0.00 | 0.00 | 0.00 | 90 | 1031.9 |
| 20260509231528 | 11 | 0 | 0.0 | 0.0 | 0.00 | 0.00 | 0.00 | 90 | 1031.9 |
| 20260509231010 | 11 | 0 | 0.0 | 0.0 | 0.00 | 0.00 | 0.00 | 90 | 1031.9 |
| 20260509230515 | 11 | 0 | 0.0 | 0.0 | 0.00 | 0.00 | 0.00 | 89 | 1031.8 |
| 20260509230028 | 11 | 0 | 0.0 | 0.0 | 0.00 | 0.00 | 0.00 | 89 | 1031.8 |
| 20260509225511 | 11 | 0 | 0.0 | 0.0 | 0.00 | 0.00 | 0.00 | 89 | 1031.8 |
| 20260509225011 | 11 | 0 | 0.0 | 0.0 | 0.00 | 0.00 | 0.00 | 89 | 1031.8 |
| 20260509224528 | 11 | 0 | 0.0 | 0.0 | 0.00 | 0.00 | 0.00 | 89 | 1031.9 |
| 20260509224010 | 11 | 0 | 0.0 | 0.0 | 0.00 | 0.00 | 0.00 | 89 | 1031.8 |
| 20260509223511 | 11 | 0 | 0.0 | 0.0 | 0.00 | 0.00 | 0.00 | 89 | 1031.7 |
| 20260509223028 | 10 | 0 | 0.0 | 0.0 | 0.00 | 0.00 | 0.00 | 89 | 1031.7 |
| 20260509222510 | 10 | 0 | 0.0 | 0.0 | 0.00 | 0.00 | 0.00 | 89 | 1031.6 |
| 20260509222010 | 10 | 0 | 0.0 | 0.0 | 0.00 | 0.00 | 0.00 | 89 | 1031.7 |
| 20260509221530 | 10 | 0 | 0.0 | 0.0 | 0.00 | 0.00 | 0.00 | 89 | 1031.6 |
| 20260509221030 | 10 | 0 | 0.0 | 0.0 | 0.00 | 0.00 | 0.00 | 89 | 1031.6 |
| 20260509220508 | 10 | 0 | 0.0 | 0.0 | 0.00 | 0.00 | 0.00 | 89 | 1031.6 |
| 20260509220029 | 10 | 0 | 0.0 | 0.0 | 0.00 | 0.00 | 0.00 | 88 | 1031.4 |
| 20260509215511 | 10 | 0 | 0.0 | 0.0 | 0.00 | 0.00 | 0.00 | 89 | 1031.4 |
| 20260509215011 | 9 | 0 | 0.0 | 0.0 | 0.00 | 0.00 | 0.00 | 88 | 1031.2 |
| 20260509214529 | 9 | 0 | 0.0 | 0.0 | 0.00 | 0.00 | 0.00 | 88 | 1031.2 |
| 20260509214014 | 9 | 0 | 0.0 | 0.0 | 0.00 | 0.00 | 0.00 | 88 | 1031.2 |
| 20260509213513 | 9 | 0 | 0.0 | 0.0 | 0.00 | 0.00 | 0.00 | 88 | 1031.1 |
| 20260509213028 | 9 | 0 | 0.0 | 0.0 | 0.00 | 0.00 | 0.00 | 88 | 1031.0 |
| 20260509212510 | 9 | 0 | 0.0 | 0.0 | 0.00 | 0.00 | 0.00 | 88 | 1031.0 |
| 20260509212011 | 9 | 0 | 0.0 | 0.0 | 0.00 | 0.00 | 0.00 | 88 | 1031.0 |
| 20260509211530 | 9 | 0 | 0.0 | 0.0 | 0.00 | 0.00 | 0.00 | 88 | 1030.9 |
| 20260509211010 | 8 | 0 | 0.0 | 0.0 | 0.00 | 0.00 | 0.00 | 88 | 1030.8 |
| 20260509210509 | 8 | 0 | 0.0 | 0.0 | 0.00 | 0.00 | 0.00 | 88 | 1030.9 |
| 20260509210030 | 8 | 0 | 0.0 | 0.0 | 0.00 | 0.00 | 0.00 | 88 | 1030.9 |
| 20260509205508 | 8 | 0 | 0.0 | 0.0 | 0.00 | 0.00 | 0.00 | 88 | 1030.8 |
| 20260509205007 | 8 | 0 | 0.0 | 0.0 | 0.00 | 0.00 | 0.00 | 88 | 1030.8 |
| 20260509204529 | 8 | 0 | 0.0 | 0.0 | 0.00 | 0.00 | 0.00 | 87 | 1030.7 |
| 20260509204010 | 8 | 0 | 0.0 | 0.0 | 0.00 | 0.00 | 0.00 | 87 | 1030.6 |
| 20260509203508 | 8 | 0 | 0.0 | 0.0 | 0.00 | 0.00 | 0.00 | 87 | 1030.5 |
| 20260509203030 | 8 | 0 | 0.0 | 0.0 | 0.00 | 0.00 | 0.00 | 87 | 1030.4 |
| 20260509202511 | 8 | 0 | 0.0 | 0.0 | 0.00 | 0.00 | 0.00 | 87 | 1030.4 |
| 20260509202011 | 8 | 0 | 0.0 | 0.0 | 0.00 | 0.00 | 0.00 | 87 | 1030.3 |
| 20260509201528 | 8 | 0 | 0.0 | 0.0 | 0.00 | 0.00 | 0.00 | 87 | 1030.2 |
| 20260509201010 | 8 | 0 | 0.0 | 0.0 | 0.00 | 0.00 | 0.00 | 87 | 1030.2 |
| 20260509200513 | 8 | 0 | 0.0 | 0.0 | 0.00 | 0.00 | 0.00 | 87 | 1030.1 |
| 20260509200030 | 8 | 0 | 0.0 | 0.0 | 0.00 | 0.00 | 0.00 | 87 | 1030.0 |
| 20260509195515 | 8 | 0 | 0.0 | 0.0 | 0.00 | 0.00 | 0.00 | 87 | 1030.1 |
| 20260509195007 | 7 | 0 | 0.0 | 0.0 | 0.00 | 0.00 | 0.00 | 87 | 1030.1 |
| 20260509194530 | 7 | 0 | 0.0 | 0.0 | 0.00 | 0.00 | 0.00 | 87 | 1030.1 |
| 20260509194009 | 7 | 0 | 0.0 | 0.0 | 0.00 | 0.00 | 0.00 | 87 | 1030.0 |
| 20260509193512 | 7 | 0 | 0.0 | 0.0 | 0.00 | 0.00 | 0.00 | 87 | 1029.9 |
| 20260509193028 | 7 | 0 | 0.0 | 0.0 | 0.00 | 0.00 | 0.00 | 87 | 1029.9 |
| 20260509192510 | 7 | 0 | 0.0 | 0.0 | 0.00 | 0.00 | 0.00 | 87 | 1029.9 |
| 20260509192017 | 7 | 0 | 0.0 | 0.0 | 0.00 | 0.00 | 0.00 | 87 | 1029.9 |
| 20260509191529 | 7 | 0 | 0.0 | 0.0 | 0.00 | 0.00 | 0.00 | 87 | 1029.9 |
| 20260509191011 | 7 | 0 | 0.0 | 0.0 | 0.00 | 0.00 | 0.00 | 86 | 1029.8 |
| 20260509190511 | 7 | 0 | 0.0 | 0.0 | 0.00 | 0.00 | 0.00 | 86 | 1029.8 |
| 20260509190028 | 7 | 0 | 0.0 | 0.0 | 0.00 | 0.00 | 0.00 | 86 | 1029.8 |
| 20260509185511 | 7 | 0 | 0.0 | 0.0 | 0.00 | 0.00 | 0.00 | 86 | 1029.8 |
| 20260509185011 | 7 | 0 | 0.0 | 0.0 | 0.00 | 0.00 | 0.00 | 86 | 1029.7 |
| 20260509184537 | 7 | 0 | 0.0 | 0.0 | 0.00 | 0.00 | 0.00 | 86 | 1029.6 |
| 20260509184012 | 7 | 0 | 0.0 | 0.0 | 0.00 | 0.00 | 0.00 | 86 | 1029.6 |
| 20260509183508 | 7 | 0 | 0.0 | 0.0 | 0.00 | 0.00 | 0.00 | 86 | 1029.6 |
| 20260509183030 | 7 | 0 | 0.0 | 0.0 | 0.00 | 0.00 | 0.00 | 86 | 1029.6 |
| 20260509182509 | 7 | 0 | 0.0 | 0.0 | 0.00 | 0.00 | 0.00 | 86 | 1029.5 |
| 20260509182010 | 7 | 0 | 0.0 | 0.0 | 0.00 | 0.00 | 0.00 | 86 | 1029.5 |
| 20260509181528 | 7 | 0 | 0.0 | 0.0 | 0.00 | 0.00 | 0.00 | 86 | 1029.5 |
| 20260509181011 | 7 | 0 | 0.0 | 0.0 | 0.00 | 0.00 | 0.00 | 86 | 1029.5 |
| 20260509180508 | 7 | 0 | 0.0 | 0.0 | 0.00 | 0.00 | 0.00 | 86 | 1029.6 |
| 20260509180028 | 7 | 0 | 0.0 | 0.0 | 0.00 | 0.00 | 0.00 | 86 | 1029.6 |
| 20260509175510 | 7 | 0 | 0.0 | 0.0 | 0.00 | 0.00 | 0.00 | 86 | 1029.7 |
| 20260509175012 | 7 | 0 | 0.0 | 0.0 | 0.00 | 0.00 | 0.00 | 86 | 1029.7 |
| 20260509174534 | 7 | 0 | 0.0 | 0.0 | 0.00 | 0.00 | 0.00 | 86 | 1029.8 |
| 20260509174007 | 7 | 0 | 0.0 | 0.0 | 0.00 | 0.00 | 0.00 | 86 | 1029.7 |
| 20260509173507 | 8 | 0 | 0.0 | 0.0 | 0.00 | 0.00 | 0.00 | 85 | 1029.7 |
| 20260509173030 | 8 | 0 | 0.0 | 0.0 | 0.00 | 0.00 | 0.00 | 85 | 1029.8 |
| 20260509172510 | 8 | 0 | 0.0 | 0.0 | 0.00 | 0.00 | 0.00 | 85 | 1029.8 |
| 20260509172010 | 8 | 0 | 0.0 | 0.0 | 0.00 | 0.00 | 0.00 | 85 | 1029.9 |
| 20260509171530 | 8 | 0 | 0.0 | 0.0 | 0.00 | 0.00 | 0.00 | 85 | 1029.8 |
| 20260509171010 | 8 | 0 | 0.0 | 0.0 | 0.00 | 0.00 | 0.00 | 85 | 1029.8 |
| 20260509170507 | 8 | 0 | 0.0 | 0.0 | 0.00 | 0.00 | 0.00 | 85 | 1029.8 |
| 20260509170030 | 8 | 0 | 0.0 | 0.0 | 0.00 | 0.00 | 0.00 | 85 | 1029.8 |
| 20260509165509 | 8 | 0 | 0.0 | 0.0 | 0.00 | 0.00 | 0.00 | 85 | 1029.9 |
| 20260509165009 | 8 | 0 | 0.0 | 0.0 | 0.00 | 0.00 | 0.00 | 85 | 1029.9 |
| 20260509164528 | 8 | 0 | 0.0 | 0.0 | 0.00 | 0.00 | 0.00 | 85 | 1029.9 |
| 20260509164010 | 8 | 0 | 0.0 | 0.0 | 0.00 | 0.00 | 0.00 | 85 | 1029.9 |
| 20260509163510 | 8 | 0 | 0.0 | 0.0 | 0.00 | 0.00 | 0.00 | 85 | 1029.9 |
| 20260509163036 | 8 | 0 | 0.0 | 0.0 | 0.00 | 0.00 | 0.00 | 85 | 1030.0 |
| 20260509162511 | 8 | 0 | 0.0 | 0.0 | 0.00 | 0.00 | 0.00 | 85 | 1030.0 |
| 20260509162011 | 8 | 0 | 0.0 | 0.0 | 0.00 | 0.00 | 0.00 | 85 | 1030.1 |
| 20260509161529 | 8 | 0 | 0.0 | 0.0 | 0.00 | 0.00 | 0.00 | 85 | 1030.2 |
| 20260509161011 | 8 | 0 | 0.0 | 0.0 | 0.00 | 0.00 | 0.00 | 85 | 1030.2 |
| 20260509160509 | 8 | 0 | 0.0 | 0.0 | 0.00 | 0.00 | 0.00 | 85 | 1030.1 |
| 20260509160030 | 8 | 0 | 0.0 | 0.0 | 0.00 | 0.00 | 0.00 | 85 | 1030.3 |
| 20260509155509 | 8 | 0 | 0.0 | 0.0 | 0.00 | 0.00 | 0.00 | 85 | 1030.2 |
| 20260509155011 | 8 | 0 | 0.0 | 0.0 | 0.00 | 0.00 | 0.00 | 85 | 1030.2 |
| 20260509154527 | 8 | 0 | 0.0 | 0.0 | 0.00 | 0.00 | 0.00 | 84 | 1030.1 |
| 20260509154011 | 8 | 0 | 0.0 | 0.0 | 0.00 | 0.00 | 0.00 | 85 | 1030.2 |
| 20260509153511 | 8 | 0 | 0.0 | 0.0 | 0.00 | 0.00 | 0.00 | 85 | 1030.2 |
| 20260509153032 | 8 | 0 | 0.0 | 0.0 | 0.00 | 0.00 | 0.00 | 85 | 1030.2 |
| 20260509152510 | 8 | 0 | 0.0 | 0.0 | 0.00 | 0.00 | 0.00 | 84 | 1030.2 |
| 20260509152016 | 8 | 0 | 0.0 | 0.0 | 0.00 | 0.00 | 0.00 | 84 | 1030.1 |
| 20260509151527 | 8 | 0 | 0.0 | 0.0 | 0.00 | 0.00 | 0.00 | 84 | 1030.3 |
| 20260509151010 | 8 | 0 | 0.0 | 0.0 | 0.00 | 0.00 | 0.00 | 84 | 1030.3 |
| 20260509150511 | 9 | 0 | 0.0 | 0.0 | 0.00 | 0.00 | 0.00 | 84 | 1030.2 |
| 20260509150028 | 9 | 0 | 0.0 | 0.0 | 0.00 | 0.00 | 0.00 | 84 | 1030.2 |
| 20260509145510 | 9 | 0 | 0.0 | 0.0 | 0.00 | 0.00 | 0.00 | 84 | 1030.3 |
| 20260509145010 | 9 | 0 | 0.0 | 0.0 | 0.00 | 0.00 | 0.00 | 84 | 1030.2 |
| 20260509144528 | 9 | 0 | 0.0 | 0.0 | 0.00 | 0.00 | 0.00 | 84 | 1030.3 |
| 20260509144010 | 9 | 0 | 0.0 | 0.0 | 0.00 | 0.00 | 0.00 | 84 | 1030.3 |
| 20260509143511 | 9 | 0 | 0.0 | 0.0 | 0.00 | 0.00 | 0.00 | 84 | 1030.3 |
| 20260509143029 | 9 | 0 | 0.0 | 0.0 | 0.00 | 0.00 | 0.00 | 84 | 1030.3 |
| 20260509142511 | 9 | 0 | 0.0 | 0.0 | 0.00 | 0.00 | 0.00 | 84 | 1030.4 |
| 20260509142009 | 9 | 0 | 0.0 | 0.0 | 0.00 | 0.00 | 0.00 | 84 | 1030.3 |
| 20260509141538 | 9 | 0 | 0.0 | 0.0 | 0.00 | 0.00 | 0.00 | 84 | 1030.4 |
| 20260509141010 | 9 | 0 | 0.0 | 0.0 | 0.00 | 0.00 | 0.00 | 84 | 1030.5 |
| 20260509140509 | 9 | 0 | 0.0 | 0.0 | 0.00 | 0.00 | 0.00 | 83 | 1030.4 |
| 20260509140028 | 9 | 0 | 0.0 | 0.0 | 0.00 | 0.00 | 0.00 | 83 | 1030.4 |
| 20260509135511 | 9 | 0 | 0.0 | 0.0 | 0.00 | 0.00 | 0.00 | 83 | 1030.5 |
| 20260509135011 | 10 | 0 | 0.0 | 0.0 | 0.00 | 0.00 | 0.00 | 83 | 1030.5 |
| 20260509134530 | 10 | 0 | 0.0 | 0.0 | 0.00 | 0.00 | 0.00 | 83 | 1030.6 |
| 20260509134009 | 10 | 0 | 0.0 | 0.0 | 0.00 | 0.00 | 0.00 | 83 | 1030.5 |
| 20260509133509 | 10 | 0 | 0.0 | 0.0 | 0.00 | 0.00 | 0.00 | 83 | 1030.6 |
| 20260509133030 | 10 | 0 | 0.0 | 1.6 | 0.00 | 0.00 | 0.00 | 83 | 1030.5 |
| 20260509132513 | 10 | 0 | 0.0 | 1.6 | 0.00 | 0.00 | 0.00 | 83 | 1030.4 |
| 20260509132011 | 10 | 0 | 0.0 | 0.0 | 0.00 | 0.00 | 0.00 | 83 | 1030.5 |
| 20260509131536 | 10 | 0 | 0.0 | 0.0 | 0.00 | 0.00 | 0.00 | 82 | 1030.4 |
| 20260509131014 | 10 | 0 | 0.0 | 0.0 | 0.00 | 0.00 | 0.00 | 82 | 1030.6 |
| 20260509130512 | 10 | 0 | 0.0 | 0.0 | 0.00 | 0.00 | 0.00 | 82 | 1030.5 |
| 20260509130031 | 10 | 0 | 0.0 | 0.0 | 0.00 | 0.00 | 0.00 | 82 | 1030.5 |
| 20260509125513 | 10 | 0 | 0.0 | 0.0 | 0.00 | 0.00 | 0.00 | 82 | 1030.5 |
| 20260509125012 | 10 | 0 | 0.0 | 0.0 | 0.00 | 0.00 | 0.00 | 82 | 1030.5 |
| 20260509124534 | 10 | 0 | 0.0 | 0.0 | 0.00 | 0.00 | 0.00 | 82 | 1030.6 |
| 20260509124012 | 10 | 0 | 0.0 | 0.0 | 0.00 | 0.00 | 0.00 | 82 | 1030.7 |
| 20260509123509 | 10 | 0 | 0.0 | 0.0 | 0.00 | 0.00 | 0.00 | 82 | 1030.7 |
| 20260509123043 | 10 | 0 | 0.0 | 0.0 | 0.00 | 0.00 | 0.00 | 82 | 1030.7 |
| 20260509122511 | 10 | 0 | 0.0 | 0.0 | 0.00 | 0.00 | 0.00 | 82 | 1030.7 |
| 20260509122009 | 10 | 0 | 0.0 | 0.0 | 0.00 | 0.00 | 0.00 | 82 | 1030.6 |
| 20260509121526 | 10 | 0 | 0.0 | 0.0 | 0.00 | 0.00 | 0.00 | 82 | 1030.5 |
| 20260509121011 | 10 | 0 | 0.0 | 0.0 | 0.00 | 0.00 | 0.00 | 82 | 1030.5 |
| 20260509120509 | 10 | 0 | 0.0 | 0.0 | 0.00 | 0.00 | 0.00 | 82 | 1030.6 |
| 20260509120030 | 11 | 0 | 0.0 | 0.0 | 0.00 | 0.00 | 0.00 | 81 | 1030.4 |
| 20260509115510 | 11 | 0 | 0.0 | 0.0 | 0.00 | 0.00 | 0.00 | 81 | 1030.4 |
| 20260509115015 | 11 | 0 | 0.0 | 0.0 | 0.00 | 0.00 | 0.00 | 81 | 1030.4 |
| 20260509114527 | 11 | 0 | 0.0 | 0.0 | 0.00 | 0.00 | 0.00 | 81 | 1030.3 |
| 20260509114008 | 11 | 0 | 0.0 | 0.0 | 0.00 | 0.00 | 0.00 | 81 | 1030.3 |
| 20260509113509 | 11 | 0 | 0.0 | 0.0 | 0.00 | 0.00 | 0.00 | 81 | 1030.4 |
| 20260509113028 | 11 | 0 | 0.0 | 0.0 | 0.00 | 0.00 | 0.00 | 81 | 1030.4 |
| 20260509112509 | 11 | 0 | 0.0 | 0.0 | 0.00 | 0.00 | 0.00 | 81 | 1030.3 |
| 20260509112011 | 11 | 0 | 0.0 | 0.0 | 0.00 | 0.00 | 0.00 | 81 | 1030.3 |
| 20260509111540 | 11 | 0 | 0.0 | 0.0 | 0.00 | 0.00 | 0.00 | 81 | 1030.3 |
| 20260509111012 | 11 | 0 | 0.0 | 3.2 | 0.00 | 0.00 | 0.00 | 81 | 1030.3 |
| 20260509110510 | 11 | 0 | 0.0 | 3.2 | 0.00 | 0.00 | 0.00 | 80 | 1030.3 |
| 20260509110027 | 11 | 244 | 0.0 | 1.6 | 0.00 | 0.00 | 0.00 | 80 | 1030.4 |
| 20260509105509 | 11 | 0 | 0.0 | 0.0 | 0.00 | 0.00 | 0.00 | 80 | 1030.2 |
| 20260509105011 | 11 | 0 | 0.0 | 0.0 | 0.00 | 0.00 | 0.00 | 80 | 1030.4 |
| 20260509104529 | 11 | 0 | 0.0 | 0.0 | 0.00 | 0.00 | 0.00 | 80 | 1030.4 |
| 20260509104010 | 12 | 0 | 0.0 | 0.0 | 0.00 | 0.00 | 0.00 | 79 | 1030.2 |
| 20260509103510 | 12 | 0 | 0.0 | 0.0 | 0.00 | 0.00 | 0.00 | 80 | 1030.4 |
| 20260509103030 | 12 | 0 | 0.0 | 0.0 | 0.00 | 0.00 | 0.00 | 79 | 1030.3 |
| 20260509102510 | 12 | 0 | 0.0 | 0.0 | 0.00 | 0.00 | 0.00 | 79 | 1030.4 |
| 20260509102009 | 12 | 0 | 0.0 | 0.0 | 0.00 | 0.00 | 0.00 | 79 | 1030.4 |
| 20260509101532 | 12 | 0 | 0.0 | 0.0 | 0.00 | 0.00 | 0.00 | 79 | 1030.3 |
| 20260509101008 | 12 | 0 | 0.0 | 0.0 | 0.00 | 0.00 | 0.00 | 79 | 1030.4 |
| 20260509100509 | 12 | 0 | 0.0 | 0.0 | 0.00 | 0.00 | 0.00 | 79 | 1030.4 |
| 20260509100032 | 12 | 0 | 0.0 | 0.0 | 0.00 | 0.00 | 0.00 | 79 | 1030.1 |
| 20260509095512 | 13 | 0 | 0.0 | 0.0 | 0.00 | 0.00 | 0.00 | 79 | 1030.2 |
| 20260509095011 | 13 | 0 | 0.0 | 0.0 | 0.00 | 0.00 | 0.00 | 79 | 1030.2 |
| 20260509094531 | 13 | 0 | 0.0 | 0.0 | 0.00 | 0.00 | 0.00 | 79 | 1030.1 |
| 20260509094011 | 13 | 0 | 0.0 | 0.0 | 0.00 | 0.00 | 0.00 | 78 | 1030.1 |
| 20260509093510 | 13 | 0 | 0.0 | 0.0 | 0.00 | 0.00 | 0.00 | 78 | 1030.1 |
| 20260509093030 | 13 | 0 | 0.0 | 0.0 | 0.00 | 0.00 | 0.00 | 78 | 1030.1 |
| 20260509092512 | 13 | 0 | 0.0 | 0.0 | 0.00 | 0.00 | 0.00 | 78 | 1030.1 |
| 20260509092009 | 13 | 0 | 0.0 | 0.0 | 0.00 | 0.00 | 0.00 | 78 | 1029.9 |
| 20260509091533 | 14 | 0 | 0.0 | 0.0 | 0.00 | 0.00 | 0.00 | 78 | 1030.0 |
| 20260509091010 | 14 | 0 | 0.0 | 0.0 | 0.00 | 0.00 | 0.00 | 78 | 1030.0 |
| 20260509090510 | 14 | 0 | 0.0 | 0.0 | 0.00 | 0.00 | 0.00 | 78 | 1030.0 |
| 20260509090028 | 15 | 0 | 0.0 | 0.0 | 0.00 | 0.00 | 0.00 | 78 | 1030.0 |
| 20260509085510 | 15 | 0 | 0.0 | 0.0 | 0.00 | 0.00 | 0.00 | 78 | 1030.0 |
| 20260509085010 | 15 | 0 | 0.0 | 0.0 | 0.00 | 0.00 | 0.00 | 78 | 1029.9 |
| 20260509084530 | 15 | 0 | 0.0 | 0.0 | 0.00 | 0.00 | 0.00 | 78 | 1029.9 |
| 20260509084010 | 15 | 0 | 0.0 | 0.0 | 0.00 | 0.00 | 0.00 | 78 | 1029.9 |
| 20260509083512 | 15 | 0 | 0.0 | 0.0 | 0.00 | 0.00 | 0.00 | 78 | 1029.9 |
| 20260509083039 | 15 | 0 | 0.0 | 0.0 | 0.00 | 0.00 | 0.00 | 78 | 1029.7 |
| 20260509082511 | 16 | 0 | 0.0 | 0.0 | 0.00 | 0.00 | 0.00 | 78 | 1029.7 |
| 20260509082011 | 16 | 0 | 0.0 | 0.0 | 0.00 | 0.00 | 0.00 | 78 | 1029.6 |
| 20260509081532 | 16 | 0 | 0.0 | 0.0 | 0.00 | 0.00 | 0.00 | 78 | 1029.6 |
| 20260509081009 | 16 | 0 | 0.0 | 1.6 | 0.00 | 0.00 | 0.00 | 78 | 1029.5 |
| 20260509080513 | 16 | 0 | 0.0 | 1.6 | 0.00 | 0.00 | 0.00 | 78 | 1029.5 |
| 20260509080034 | 16 | 0 | 0.0 | 3.2 | 0.00 | 0.00 | 0.00 | 78 | 1029.5 |
| 20260509075509 | 16 | 0 | 0.0 | 3.2 | 0.00 | 0.00 | 0.00 | 78 | 1029.4 |
| 20260509075010 | 16 | 0 | 0.0 | 3.2 | 0.00 | 0.00 | 0.00 | 78 | 1029.5 |
| 20260509074531 | 16 | 245 | 0.0 | 4.8 | 0.00 | 0.00 | 0.00 | 78 | 1029.5 |
| 20260509074014 | 17 | 0 | 0.0 | 4.8 | 0.00 | 0.00 | 0.00 | 78 | 1029.6 |
| 20260509073511 | 17 | 245 | 0.0 | 8.0 | 0.00 | 0.00 | 0.00 | 78 | 1029.5 |
| 20260509073030 | 17 | 0 | 1.6 | 8.0 | 0.00 | 0.00 | 0.00 | 77 | 1029.5 |
| 20260509072511 | 17 | 0 | 0.0 | 3.2 | 0.00 | 0.00 | 0.00 | 77 | 1029.5 |
| 20260509072011 | 17 | 246 | 0.0 | 4.8 | 0.00 | 0.00 | 0.00 | 77 | 1029.5 |
| 20260509071530 | 17 | 246 | 1.6 | 4.8 | 0.00 | 0.00 | 0.00 | 77 | 1029.4 |
| 20260509071010 | 17 | 245 | 0.0 | 4.8 | 0.00 | 0.00 | 0.00 | 76 | 1029.4 |
| 20260509070511 | 17 | 246 | 0.0 | 4.8 | 0.00 | 0.00 | 0.00 | 76 | 1029.4 |
| 20260509070028 | 17 | 246 | 0.0 | 6.4 | 0.00 | 0.00 | 0.00 | 76 | 1029.5 |
| 20260509065513 | 17 | 246 | 1.6 | 8.0 | 0.00 | 0.00 | 0.00 | 75 | 1029.3 |
| 20260509065010 | 17 | 0 | 0.0 | 8.0 | 0.00 | 0.00 | 0.00 | 75 | 1029.5 |
| 20260509064554 | 17 | 244 | 1.6 | 6.4 | 0.00 | 0.00 | 0.00 | 75 | 1029.3 |
| 20260509064009 | 17 | 244 | 0.0 | 6.4 | 0.00 | 0.00 | 0.00 | 74 | 1029.3 |
| 20260509063512 | 17 | 0 | 0.0 | 6.4 | 0.00 | 0.00 | 0.00 | 74 | 1029.4 |
| 20260509063034 | 18 | 244 | 0.0 | 6.4 | 0.00 | 0.00 | 0.00 | 74 | 1029.4 |
| 20260509062511 | 18 | 0 | 0.0 | 6.4 | 0.00 | 0.00 | 0.00 | 74 | 1029.4 |
| 20260509062011 | 18 | 244 | 0.0 | 6.4 | 0.00 | 0.00 | 0.00 | 74 | 1029.4 |
| 20260509061540 | 18 | 244 | 1.6 | 8.0 | 0.00 | 0.00 | 0.00 | 74 | 1029.4 |
| 20260509061011 | 18 | 247 | 1.6 | 8.0 | 0.00 | 0.00 | 0.00 | 74 | 1029.3 |
| 20260509060511 | 18 | 245 | 1.6 | 8.0 | 0.00 | 0.00 | 0.00 | 74 | 1029.3 |
| 20260509060031 | 18 | 249 | 1.6 | 8.0 | 0.00 | 0.00 | 0.00 | 75 | 1029.2 |
| 20260509055511 | 18 | 251 | 1.6 | 11.3 | 0.00 | 0.00 | 0.00 | 75 | 1029.3 |
| 20260509055010 | 18 | 246 | 3.2 | 11.3 | 0.00 | 0.00 | 0.00 | 76 | 1029.3 |
| 20260509054530 | 18 | 248 | 3.2 | 8.0 | 0.00 | 0.00 | 0.00 | 77 | 1029.3 |
| 20260509054011 | 17 | 0 | 1.6 | 8.0 | 0.00 | 0.00 | 0.00 | 77 | 1029.4 |
| 20260509053509 | 17 | 252 | 1.6 | 8.0 | 0.00 | 0.00 | 0.00 | 77 | 1029.2 |
| 20260509053049 | 17 | 250 | 1.6 | 8.0 | 0.00 | 0.00 | 0.00 | 77 | 1029.4 |
| 20260509052511 | 17 | 249 | 0.0 | 6.4 | 0.00 | 0.00 | 0.00 | 77 | 1029.4 |
| 20260509052009 | 17 | 249 | 3.2 | 6.4 | 0.00 | 0.00 | 0.00 | 77 | 1029.5 |
| 20260509051527 | 17 | 249 | 1.6 | 4.8 | 0.00 | 0.00 | 0.00 | 77 | 1029.4 |
| 20260509051012 | 17 | 0 | 0.0 | 6.4 | 0.00 | 0.00 | 0.00 | 77 | 1029.5 |
| 20260509050509 | 17 | 0 | 0.0 | 6.4 | 0.00 | 0.00 | 0.00 | 77 | 1029.4 |
| 20260509050032 | 17 | 248 | 1.6 | 8.0 | 0.00 | 0.00 | 0.00 | 77 | 1029.5 |
| 20260509045512 | 17 | 250 | 1.6 | 8.0 | 0.00 | 0.00 | 0.00 | 77 | 1029.4 |
| 20260509045011 | 17 | 0 | 0.0 | 4.8 | 0.00 | 0.00 | 0.00 | 77 | 1029.4 |
| 20260509044533 | 17 | 249 | 1.6 | 6.4 | 0.00 | 0.00 | 0.00 | 77 | 1029.6 |